Duncan, OK

12:05 AM CDT on September 22, 2017 (GMT -0500)
Halliburton

Weather History for KDUC - March, 2013

Change the Weather History Date:

Monday, March 25, 2013

  Actual Average (KLAW) Record (KLAW)
Temperature  
Mean Temperature 37 °F -  
Max Temperature 48 °F 65 °F 88 °F (1976)
Min Temperature 26 °F 41 °F 20 °F (1955)
Degree Days  
Heating Degree Days 28    
Moisture  
Dew Point 19 °F    
Average Humidity 50    
Maximum Humidity 86    
Minimum Humidity 27    
Precipitation  
Precipitation 0.00 in - - ()
Sea Level Pressure  
Sea Level Pressure 30.32 in    
Wind  
Wind Speed 10 mph (NNW)    
Max Wind Speed 22 mph    
Max Gust Speed 26 mph    
Visibility 10 miles    
Events      
Averages and records for this station are not official NWS values.
T = Trace of Precipitation, MM = Missing Value Source: NWS Daily Summary

Daily Weather History Graph

Daily Weather History Graph

Search for Another Location

Airport or City:

Trip Planner

Search our weather history database for the weather conditions in past years. The results will help you decide how hot, cold, wet, or windy it might be!

Date:

Astronomy

Mar. 25, 2013 Rise Set
Actual Time 7:28 AM CDT 7:47 PM CDT
Civil Twilight 7:03 AM CDT 8:12 PM CDT
Nautical Twilight 6:33 AM CDT 8:42 PM CDT
Astronomical Twilight 6:03 AM CDT 9:12 PM CDT
Moon 6:22 PM CDT (3/25) 6:08 AM CDT (3/25)
Length of Visible Light 13h 09m
Length of Day
12h 19m
Waxing Gibbous, 96% of the Moon is Illuminated
Mar 25
Waxing Gibbous
Mar 27
Full
Apr 2
Last Quarter
Apr 10
New
Apr 18
First Quarter

Hourly Weather History & Observations

Time (CDT) Temp. Windchill Dew Point Humidity Pressure Visibility Wind Dir Wind Speed Gust Speed Precip Events Conditions
12:15 AM 33.8 °F 25.8 °F 21.2 °F 60% 30.22 in 10.0 mi NNE 10.4 mph - N/A   Clear
12:35 AM 33.8 °F 27.0 °F 21.2 °F 60% 30.22 in 10.0 mi NNE 8.1 mph - N/A   Clear
12:55 AM 33.8 °F 26.4 °F 21.2 °F 60% 30.23 in 10.0 mi North 9.2 mph - N/A   Clear
1:15 AM 32.0 °F 25.6 °F 21.2 °F 64% 30.23 in 10.0 mi North 6.9 mph - N/A   Clear
1:55 AM 32.0 °F 24.8 °F 21.2 °F 64% 30.24 in 10.0 mi North 8.1 mph - N/A   Clear
2:15 AM 32.0 °F 25.6 °F 21.2 °F 64% 30.25 in 10.0 mi North 6.9 mph - N/A   Clear
2:35 AM 33.8 °F 28.6 °F 21.2 °F 60% 30.25 in 10.0 mi NNW 5.8 mph - N/A   Clear
2:55 AM 32.0 °F 27.5 °F 21.2 °F 64% 30.26 in 10.0 mi WNW 4.6 mph - N/A   Clear
3:15 AM 30.2 °F 25.4 °F 21.2 °F 69% 30.26 in 10.0 mi WNW 4.6 mph - N/A   Clear
3:35 AM 30.2 °F 24.3 °F 21.2 °F 69% 30.25 in 10.0 mi WNW 5.8 mph - N/A   Clear
3:55 AM 30.2 °F 23.4 °F 21.2 °F 69% 30.25 in 10.0 mi NW 6.9 mph - N/A   Clear
4:15 AM 30.2 °F 22.6 °F 23.0 °F 75% 30.24 in 10.0 mi NNW 8.1 mph - N/A   Clear
4:35 AM 30.2 °F 23.4 °F 23.0 °F 75% 30.25 in 10.0 mi NNW 6.9 mph - N/A   Clear
4:55 AM 30.2 °F 24.3 °F 23.0 °F 75% 30.25 in 10.0 mi NW 5.8 mph - N/A   Clear
5:15 AM 28.4 °F 24.6 °F 23.0 °F 80% 30.26 in 10.0 mi West 3.5 mph - N/A   Scattered Clouds
5:35 AM 26.6 °F 22.6 °F 23.0 °F 86% 30.26 in 10.0 mi WSW 3.5 mph - N/A   Scattered Clouds
5:55 AM 26.6 °F 22.6 °F 23.0 °F 86% 30.27 in 10.0 mi West 3.5 mph - N/A   Clear
6:15 AM 28.4 °F 22.2 °F 23.0 °F 80% 30.28 in 10.0 mi NW 5.8 mph - N/A   Clear
6:35 AM 30.2 °F 23.4 °F 24.8 °F 80% 30.29 in 10.0 mi NW 6.9 mph - N/A   Clear
6:55 AM 30.2 °F 23.4 °F 24.8 °F 80% 30.29 in 10.0 mi NNW 6.9 mph - N/A   Clear
7:15 AM 30.2 °F 24.3 °F 24.8 °F 80% 30.30 in 10.0 mi NNW 5.8 mph - N/A   Clear
7:35 AM 30.2 °F 23.4 °F 24.8 °F 80% 30.31 in 10.0 mi NW 6.9 mph - N/A   Scattered Clouds
7:55 AM 32.0 °F 26.4 °F 24.8 °F 75% 30.32 in 10.0 mi NNW 5.8 mph - N/A   Overcast
8:15 AM 32.0 °F 24.2 °F 24.8 °F 75% 30.33 in 10.0 mi North 9.2 mph - N/A   Mostly Cloudy
8:55 AM 33.8 °F 23.9 °F 23.0 °F 65% 30.34 in 10.0 mi North 15.0 mph 21.9 mph N/A   Scattered Clouds
9:15 AM 35.6 °F 25.9 °F 21.2 °F 56% 30.35 in 10.0 mi North 16.1 mph 21.9 mph N/A   Clear
9:35 AM 35.6 °F 25.5 °F 21.2 °F 56% 30.36 in 10.0 mi North 17.3 mph 25.3 mph N/A   Clear
9:55 AM 37.4 °F 26.9 °F 17.6 °F 45% 30.36 in 10.0 mi North 20.7 mph 25.3 mph N/A   Clear
10:15 AM 37.4 °F 27.2 °F 15.8 °F 41% 30.37 in 10.0 mi North 19.6 mph 25.3 mph N/A   Clear
10:35 AM 39.2 °F 29.6 °F 15.8 °F 39% 30.37 in 10.0 mi North 19.6 mph 25.3 mph N/A   Clear
10:55 AM 41.0 °F 31.9 °F 14.0 °F 33% 30.37 in 10.0 mi North 19.6 mph 25.3 mph N/A   Clear
11:15 AM 41.0 °F 31.4 °F 15.8 °F 36% 30.38 in 10.0 mi North 21.9 mph 26.5 mph N/A   Clear
11:35 AM 41.0 °F 32.8 °F 15.8 °F 36% 30.38 in 10.0 mi NNW 16.1 mph 23.0 mph N/A   Clear
11:55 AM 41.0 °F 33.1 °F 15.8 °F 36% 30.39 in 10.0 mi North 15.0 mph 20.7 mph N/A   Clear
12:15 PM 41.0 °F 33.9 °F 14.0 °F 33% 30.39 in 10.0 mi NNW 12.7 mph - N/A   Clear
12:35 PM 42.8 °F 35.1 °F 17.6 °F 36% 30.38 in 10.0 mi North 16.1 mph 23.0 mph N/A   Clear
12:55 PM 42.8 °F 35.1 °F 17.6 °F 36% 30.38 in 10.0 mi NNW 16.1 mph 19.6 mph N/A   Clear
1:15 PM 44.6 °F 38.4 °F 17.6 °F 34% 30.37 in 10.0 mi North 12.7 mph 18.4 mph N/A   Clear
1:35 PM 44.6 °F 38.1 °F 17.6 °F 34% 30.36 in 10.0 mi NNW 13.8 mph 21.9 mph N/A   Clear
1:55 PM 44.6 °F 37.8 °F 17.6 °F 34% 30.35 in 10.0 mi NNW 15.0 mph 20.7 mph N/A   Clear
2:15 PM 46.4 °F 39.5 °F 17.6 °F 32% 30.35 in 10.0 mi NNW 17.3 mph 23.0 mph N/A   Clear
2:35 PM 46.4 °F 39.5 °F 14.0 °F 27% 30.34 in 10.0 mi NNW 17.3 mph 26.5 mph N/A   Clear
2:55 PM 46.4 °F 39.2 °F 15.8 °F 29% 30.34 in 10.0 mi NW 18.4 mph 25.3 mph N/A   Clear
3:15 PM 46.4 °F 40.1 °F 15.8 °F 29% 30.33 in 10.0 mi NNW 15.0 mph 25.3 mph N/A   Clear
3:35 PM 46.4 °F 39.0 °F 15.8 °F 29% 30.32 in 10.0 mi NNW 19.6 mph 26.5 mph N/A   Clear
3:55 PM 48.2 °F - 15.8 °F 27% 30.32 in 10.0 mi NNW 15.0 mph 25.3 mph N/A   Clear
4:15 PM 46.4 °F 40.4 °F 15.8 °F 29% 30.32 in 10.0 mi NNW 13.8 mph 25.3 mph N/A   Clear
4:35 PM 46.4 °F 40.4 °F 15.8 °F 29% 30.31 in 10.0 mi NNW 13.8 mph 21.9 mph N/A   Clear
4:55 PM 48.2 °F - 15.8 °F 27% 30.31 in 10.0 mi NNW 17.3 mph 21.9 mph N/A   Clear
5:15 PM 46.4 °F 39.5 °F 15.8 °F 29% 30.31 in 10.0 mi NW 17.3 mph - N/A   Clear
5:35 PM 46.4 °F 40.7 °F 17.6 °F 32% 30.31 in 10.0 mi NNW 12.7 mph 24.2 mph N/A   Clear
5:55 PM 46.4 °F 39.2 °F 15.8 °F 29% 30.31 in 10.0 mi NW 18.4 mph 23.0 mph N/A   Clear
6:15 PM 46.4 °F 39.8 °F 17.6 °F 32% 30.31 in 10.0 mi NNW 16.1 mph 25.3 mph N/A   Clear
6:35 PM 46.4 °F 39.8 °F 17.6 °F 32% 30.32 in 10.0 mi NNW 16.1 mph - N/A   Clear
6:55 PM 46.4 °F 40.1 °F 15.8 °F 29% 30.33 in 10.0 mi NNW 15.0 mph 21.9 mph N/A   Clear
7:15 PM 44.6 °F 37.2 °F 17.6 °F 34% 30.34 in 10.0 mi NNW 17.3 mph - N/A   Clear
7:35 PM 44.6 °F 38.4 °F 17.6 °F 34% 30.35 in 10.0 mi NNW 12.7 mph - N/A   Clear
7:55 PM 42.8 °F 37.0 °F 17.6 °F 36% 30.35 in 10.0 mi NNW 10.4 mph - N/A   Clear
8:15 PM 42.8 °F 39.3 °F 17.6 °F 36% 30.36 in 10.0 mi North 5.8 mph - N/A   Clear
8:35 PM 41.0 °F 37.1 °F 17.6 °F 39% 30.36 in 10.0 mi North 5.8 mph - N/A   Clear
8:55 PM 39.2 °F 35.0 °F 17.6 °F 42% 30.36 in 10.0 mi North 5.8 mph - N/A   Clear
9:15 PM 39.2 °F 37.0 °F 17.6 °F 42% 30.37 in 10.0 mi North 3.5 mph - N/A   Clear
9:35 PM 39.2 °F - 17.6 °F 42% 30.37 in 10.0 mi Calm Calm - N/A   Clear
9:55 PM 37.4 °F 33.8 °F 17.6 °F 45% 30.38 in 10.0 mi NNE 4.6 mph - N/A   Clear
10:15 PM 37.4 °F 34.9 °F 17.6 °F 45% 30.38 in 10.0 mi NNE 3.5 mph - N/A   Clear
10:35 PM 37.4 °F - 17.6 °F 45% 30.39 in 10.0 mi Calm Calm - N/A   Clear
10:55 PM 35.6 °F - 17.6 °F 48% 30.39 in 10.0 mi Calm Calm - N/A   Clear
11:15 PM 32.0 °F - 19.4 °F 60% 30.40 in 10.0 mi Calm Calm - N/A   Clear
11:35 PM 32.0 °F - 19.4 °F 60% 30.40 in 10.0 mi Calm Calm - N/A   Clear
11:55 PM 33.8 °F - 19.4 °F 56% 30.40 in 10.0 mi Calm Calm - N/A   Clear